Change the Weather History Date:

Monday, December 31, 2012

  Actual Average Record
Temperature  
Mean Temperature 35 °F -  
Max Temperature 37 °F 44 °F 71 °F (2004)
Min Temperature 33 °F 26 °F 12 °F (2000)
Degree Days  
Heating Degree Days 30    
Moisture  
Dew Point 28 °F    
Average Humidity 77    
Maximum Humidity 81    
Minimum Humidity 52    
Precipitation  
Precipitation 0.26 in - - ()
Sea Level Pressure  
Sea Level Pressure 30.12 in    
Wind  
Wind Speed 4 mph (ESE)    
Max Wind Speed 7 mph    
Max Gust Speed -    
Visibility 5 miles    
Events      
Averages and records for this station are not official NWS values.
T = Trace of Precipitation, MM = Missing Value Source: NWS Daily Summary

Daily Weather History Graph

Daily Weather History Graph

Search for Another Location

Airport or City:

Trip Planner

Search our weather history database for the weather conditions in past years. The results will help you decide how hot, cold, wet, or windy it might be!

Date:

Astronomy

Dec. 31, 2012 Rise Set
Actual Time 7:21 AM CST 5:05 PM CST
Civil Twilight 6:53 AM CST 5:34 PM CST
Nautical Twilight 6:20 AM CST 6:06 PM CST
Astronomical Twilight 5:49 AM CST 6:37 PM CST
Moon 8:30 PM CST (12/31) 9:09 AM CST (12/31)
Length of Visible Light 10h 41m
Length of Day
9h 44m
Waning Gibbous, 90% of the Moon is Illuminated
Dec 31
Waning Gibbous
Jan 4
Last Quarter
Jan 11
New
Jan 18
First Quarter
Jan 26
Full

Hourly Weather History & Observations

Time (CST) Temp. Windchill Dew Point Humidity Pressure Visibility Wind Dir Wind Speed Gust Speed Precip Events Conditions
12:15 AM 35.6 °F 29.9 °F 19.4 °F 52% 30.23 in 10.0 mi South 6.9 mph - N/A   Clear
12:35 AM 35.6 °F 30.7 °F 21.2 °F 56% 30.22 in 10.0 mi SSE 5.8 mph - N/A   Scattered Clouds
12:55 AM 35.6 °F 31.7 °F 21.2 °F 56% 30.23 in 10.0 mi South 4.6 mph - N/A   Partly Cloudy
1:15 AM 35.6 °F 32.8 °F 21.2 °F 56% 30.24 in 10.0 mi South 3.5 mph - N/A   Clear
1:55 AM 37.4 °F - 21.2 °F 52% 30.24 in 10.0 mi Calm Calm - N/A   Clear
2:15 AM 37.4 °F - 21.2 °F 52% 30.25 in 10.0 mi Calm Calm - N/A   Partly Cloudy
2:56 AM 35.6 °F - 24.8 °F 65% 30.26 in 5.0 mi Calm Calm - N/A   Overcast
3:15 AM 33.8 °F 29.6 °F 24.8 °F 70% 30.24 in 6.0 mi SE 4.6 mph - N/A   Overcast
3:35 AM 33.8 °F 30.8 °F 26.6 °F 75% 30.23 in 5.0 mi SE 3.5 mph - N/A   Overcast
3:55 AM 33.8 °F 29.6 °F 26.6 °F 75% 30.21 in 6.0 mi South 4.6 mph - N/A   Overcast
4:15 AM 33.8 °F 29.6 °F 26.6 °F 75% 30.20 in 6.0 mi SSE 4.6 mph - N/A   Overcast
4:35 AM 33.8 °F 29.6 °F 26.6 °F 75% 30.20 in 8.0 mi South 4.6 mph - N/A   Overcast
4:55 AM 33.8 °F - 26.6 °F 75% 30.20 in 7.0 mi Calm Calm - 0.03 in   Overcast
5:35 AM 33.8 °F - 28.4 °F 81% 30.20 in 7.0 mi Calm Calm - 0.03 in   Overcast
5:55 AM 33.8 °F - 28.4 °F 81% 30.21 in 8.0 mi Calm Calm - 0.03 in   Overcast
6:15 AM 33.8 °F - 28.4 °F 81% 30.20 in 3.0 mi Calm Calm - 0.03 in   Overcast
7:15 AM 33.8 °F 29.6 °F 28.4 °F 81% 30.20 in 3.0 mi East 4.6 mph - N/A   Overcast
7:35 AM 33.8 °F 30.8 °F 28.4 °F 81% 30.18 in 2.5 mi East 3.5 mph - N/A   Overcast
8:35 AM 33.8 °F 30.8 °F 28.4 °F 81% 30.16 in 2.5 mi ESE 3.5 mph - N/A   Overcast
8:55 AM 33.8 °F 30.8 °F 28.4 °F 81% 30.16 in 3.0 mi ESE 3.5 mph - N/A   Overcast
9:15 AM 35.6 °F - 30.2 °F 81% 30.16 in 3.0 mi Calm Calm - N/A   Overcast
9:35 AM 35.6 °F - 28.4 °F 75% 30.18 in 5.0 mi Calm Calm - N/A   Overcast
10:35 AM 35.6 °F 32.8 °F 30.2 °F 81% 30.17 in 2.0 mi East 3.5 mph - N/A   Overcast
10:55 AM 35.6 °F 31.7 °F 30.2 °F 81% 30.15 in 2.5 mi East 4.6 mph - N/A   Mostly Cloudy
11:35 AM 35.6 °F 32.8 °F 30.2 °F 81% 30.15 in 2.5 mi NNE 3.5 mph - N/A   Overcast
11:55 AM 35.6 °F - 30.2 °F 81% 30.14 in 3.0 mi Calm Calm - 0.12 in   Overcast
12:15 PM 35.6 °F 32.8 °F 30.2 °F 81% 30.12 in 2.0 mi East 3.5 mph - 0.03 in   Overcast
1:15 PM 35.6 °F 32.8 °F 30.2 °F 81% 30.07 in 2.0 mi ENE 3.5 mph - N/A   Overcast
1:35 PM 35.6 °F 31.7 °F 30.2 °F 81% 30.06 in 3.0 mi NE 4.6 mph - N/A   Overcast
1:55 PM 35.6 °F 31.7 °F 30.2 °F 81% 30.06 in 1.8 mi NE 4.6 mph - N/A   Overcast
2:15 PM 35.6 °F 31.7 °F 30.2 °F 81% 30.05 in 2.0 mi NE 4.6 mph - N/A   Overcast
3:15 PM 35.6 °F 32.8 °F 30.2 °F 81% 30.06 in 3.0 mi North 3.5 mph - N/A   Overcast
3:35 PM 35.6 °F 31.7 °F 30.2 °F 81% 30.04 in 2.0 mi East 4.6 mph - N/A   Overcast
3:55 PM 35.6 °F 30.7 °F 30.2 °F 81% 30.04 in 1.8 mi ESE 5.8 mph - N/A   Overcast
4:35 PM 35.6 °F 29.9 °F 30.2 °F 81% 30.01 in 4.0 mi ESE 6.9 mph - N/A   Overcast
4:55 PM 35.6 °F 29.9 °F 30.2 °F 81% 30.01 in 4.0 mi ESE 6.9 mph - 0.02 in   Overcast
5:15 PM 35.6 °F 29.9 °F 30.2 °F 81% 30.01 in 6.0 mi ESE 6.9 mph - N/A   Overcast
5:35 PM 35.6 °F 29.9 °F 30.2 °F 81% 30.01 in 10.0 mi ESE 6.9 mph - N/A   Overcast
6:15 PM 35.6 °F - 30.2 °F 81% 30.01 in 10.0 mi Calm Calm - N/A   Overcast
6:35 PM 35.6 °F 32.8 °F 30.2 °F 81% 30.01 in 10.0 mi East 3.5 mph - N/A   Overcast
7:35 PM 35.6 °F 31.7 °F 30.2 °F 81% 30.02 in 7.0 mi ESE 4.6 mph - N/A   Overcast
7:55 PM 35.6 °F - 30.2 °F 81% 30.02 in 7.0 mi Calm Calm - N/A   Overcast
8:15 PM 35.6 °F 32.8 °F 30.2 °F 81% 30.02 in 7.0 mi East 3.5 mph - N/A   Overcast
8:35 PM 35.6 °F 32.8 °F 30.2 °F 81% 30.02 in 5.0 mi ENE 3.5 mph - N/A   Overcast
9:15 PM 35.6 °F 32.8 °F 30.2 °F 81% 30.02 in 5.0 mi East 3.5 mph - N/A   Overcast
9:35 PM 35.6 °F 32.8 °F 30.2 °F 81% 30.02 in 5.0 mi East 3.5 mph - N/A   Overcast
9:55 PM 35.6 °F - 30.2 °F 81% 30.03 in 5.0 mi Calm Calm - N/A   Overcast
10:35 PM 35.6 °F - 30.2 °F 81% 30.04 in 5.0 mi Calm Calm - N/A   Overcast
10:55 PM 35.6 °F - 30.2 °F 81% 30.04 in 4.0 mi Calm Calm - N/A   Overcast
11:35 PM 35.6 °F - 30.2 °F 81% 30.03 in 3.0 mi Calm Calm - N/A   Overcast
11:55 PM 35.6 °F - 30.2 °F 81% 30.04 in 2.0 mi Calm Calm - N/A   Overcast